[[{"header":{"parameterUnit":"m.s-1","parameterCategory":2,"la1":30.2991,"la2":30.254,"lo1":-89.0895,"lo2":-89.0444,"dy":0.0017,"dx":0.0017,"nx":28,"ny":28,"refTime":"2025-07-21T21:00:00:Z","depth":"0","parameterNumber":2,"parameterNumberName":"U-component_of_CURRENTS"},"data":[0,0,0,0,0,0,0,0,0,0,0,0,0,0,0,0,0,0,0,0,0,0,0,0,0,0,0,0,0,0,0,0,0,0,0,0,0,0,0,0,0,0,0,0,0,0,0,0,0,0,0,0,0,0,0,0,0,0,0.4904,0.4907,0,0.5124,0.5126,0.5128,0.5184,0.5183,0.5182,0.5181,0.5269,0.5272,0.5275,0,0,0,0,0,0,0,0,0,0,0,0,0,0.4529,0.4535,0.4904,0.4907,0.491,0.5124,0.5126,0.5129,0.5184,0.5183,0.5181,0.518,0.5268,0.5271,0.5275,0,0,0,0,0,0,0,0,0,0,0,0,0,0.471,0.4537,0.4903,0.4967,0.4975,0.5123,0.5127,0.513,0.5184,0.5183,0.5181,0.518,0.5266,0.5271,0.5276,0.5334,0,0,0.5291,0.5293,0,0,0,0,0,0,0,0,0.4699,0.4723,0.4955,0.4963,0.4973,0.5129,0.5027,0.5193,0.5184,0.5099,0.5181,0.5179,0.5214,0.5223,0.5263,0.5338,0.5342,0.5291,0.5294,0.5296,0.5297,0,0,0,0,0,0,0,0.4687,0.4714,0.4986,0.4958,0.4969,0.4984,0.5008,0.5059,0.5156,0.5107,0.5113,0.5146,0.5217,0.5258,0.5265,0.5343,0.5291,0.5295,0.5298,0.53,0.5461,0.5463,0,0,0,0,0,0,0.4673,0.4703,0.4979,0.4993,0.4835,0.4993,0.5019,0.5076,0.5158,0.5172,0.5147,0.5147,0.525,0.5259,0.5268,0.5357,0.5296,0.53,0.5303,0.546,0.5462,0.5463,0,0,0,0,0,0,0.4665,0.4697,0.497,0.4854,0.4891,0.5001,0.5065,0.5082,0.5131,0.5191,0.52,0.5179,0.5249,0.5261,0.533,0.5359,0.5303,0.5307,0.5458,0.5461,0.5463,0.5524,0,0,0,0,0,0,0.4653,0.4693,0.4723,0.4855,0.4898,0.5094,0.5068,0.5087,0.5155,0.5158,0.5222,0.5229,0.5249,0.5323,0.5335,0.5365,0.5311,0.5457,0.5459,0.5462,0.552,0.5527,0.5534,0,0,0,0,0,0.4639,0.4709,0.4723,0.4756,0.4939,0.5098,0.5122,0.5189,0.5158,0.5217,0.5236,0.5227,0.5347,0.533,0.5343,0.5374,0.5455,0.5459,0.5462,0.5517,0.5526,0.5534,0,0,0,0,0,0,0.4567,0.4725,0.4743,0.4857,0.4976,0.5109,0.5174,0.5195,0.526,0.5251,0.5265,0.5277,0.5345,0.5352,0.5332,0.5425,0.5392,0.5398,0.5429,0.5438,0.5445,0.544,0.5315,0,0,0,0,0,0.4563,0.4658,0.4799,0.4893,0.4954,0.5053,0.5117,0.517,0.5248,0.5276,0.5306,0.5331,0.5371,0.5397,0.5442,0.5505,0.5535,0.5526,0.5533,0.5539,0.5543,0.5614,0.5628,0.5474,0.5473,0.5473,0,0,0.4558,0.4661,0.4711,0.4883,0.4975,0.5072,0.509,0.5217,0.5262,0.5274,0.5333,0.5369,0.5395,0.5466,0.5495,0.5475,0.5606,0.5543,0.5548,0.5548,0.5619,0.5634,0.5647,0.5476,0.5475,0.5475,0,0,0.4632,0.4695,0.4809,0.4898,0.5054,0.5109,0.5141,0.5276,0.5305,0.5387,0.5386,0.5443,0.5505,0.5538,0.5553,0.5626,0.5645,0.5629,0.5664,0.5733,0.5747,0.5759,0.585,0.5869,0.5628,0.5629,0.5629,0,0.4615,0.4772,0.4865,0.4984,0.5044,0.5115,0.5215,0.5265,0.5389,0.5409,0.541,0.5503,0.5537,0.5597,0.5629,0.5643,0.5692,0.563,0.5744,0.5756,0.5768,0.5857,0.5878,0.5632,0.5632,0.5631,0.5631,0,0.4789,0.4876,0.4953,0.51,0.517,0.5283,0.535,0.54,0.5414,0.5456,0.553,0.5589,0.5635,0.566,0.5674,0.5763,0.5778,0.575,0.5724,0.5787,0.5878,0.5899,0.5637,0.5635,0.5634,0.5634,0,0,0.482,0.5035,0.5046,0.5098,0.5233,0.5304,0.5363,0.5451,0.5483,0.5551,0.5622,0.5677,0.5696,0.5716,0.5742,0.5813,0.5959,0.5824,0.5826,0.5918,0.6144,0.6073,0.6089,0.5956,0.5959,0.5961,0.6188,0,0.492,0.5117,0.5197,0.5303,0.5387,0.5424,0.5468,0.5524,0.5575,0.5659,0.5689,0.5776,0.5714,0.5781,0.5823,0.5941,0.6011,0.5902,0.6065,0.6071,0.6002,0.6109,0.5794,0.5961,0.6208,0.6211,0.6214,0,0.5056,0.515,0.5295,0.5379,0.542,0.5468,0.5524,0.5589,0.5682,0.5735,0.5787,0.5841,0.5941,0.5908,0.6053,0.5989,0.6066,0.6142,0.6151,0.6072,0.6036,0.5931,0.599,0.5827,0.6246,0.6243,0.6241,0,0.502,0.5196,0.5291,0.5328,0.5449,0.5477,0.5523,0.5601,0.5656,0.5805,0.5891,0.5964,0.6049,0.6131,0.6228,0.6175,0.6428,0.6366,0.6365,0.6363,0.6118,0.6087,0.6031,0.6484,0.6484,0.6483,0.6482,0,0.5087,0.5149,0.5274,0.5311,0.5377,0.5455,0.5528,0.5599,0.5725,0.5802,0.5916,0.6004,0.6114,0.6245,0.6311,0.6401,0.647,0.6404,0.642,0.6133,0.6102,0.5964,0.5908,0.6492,0.649,0.6488,0.6487,0,0.5068,0.5164,0.5254,0.5354,0.5374,0.5413,0.5517,0.5572,0.5705,0.5834,0.5899,0.6071,0.6231,0.6351,0.6544,0.65,0.6445,0.6641,0.6311,0.6281,0.6065,0.6023,0.5871,0.5707,0.6669,0.6669,0.6669,0,0.5117,0.516,0.5247,0.5269,0.5319,0.5377,0.5414,0.554,0.5605,0.5839,0.5902,0.6128,0.6221,0.6478,0.6497,0.6621,0.6446,0.6402,0.6216,0.6037,0.6005,0.5823,0.5681,0.5943,0.5937,0.5932,0.5928,0,0.5152,0.5165,0.5211,0.5244,0.5277,0.5316,0.5382,0.5427,0.5578,0.569,0.5836,0.5959,0.6181,0.614,0.6317,0.634,0.6066,0.6301,0.618,0.5494,0.5224,0.5077,0.585,0.5882,0.5887,0.589,0.5893,0.5895,0.5152,0.5165,0.5188,0.5206,0.5227,0.5223,0.5189,0.5265,0.533,0.5398,0.5646,0.5678,0.577,0.5944,0.5966,0.5761,0.5796,0.5552,0.5549,0.5408,0.5115,0.5813,0.5813,0.5817,0.582,0.5823,0.5826,0,0.5124,0.5123,0.5145,0.5119,0.507,0.5118,0.5124,0.503,0.5001,0.5114,0.519,0.519,0.5185,0.525,0.5187,0.502,0.4805,0.4885,0.4515,0.444,0.5109,0.4937,0.4663,0.4663,0.4663,0.4664,0.4664,0.4664,0.5112,0.5085,0.5068,0.495,0.4913,0.4755,0.4708,0.4589,0.4576,0.4441,0.4364,0.4449,0.4677,0.4764,0.4583,0.4472,0.4153,0.3955,0.4038,0.4468,0.4526,0.4582,0.4404,0.4023,0.4023,0.311,0.3103,0.3098]},{"header":{"parameterUnit":"m.s-1","parameterCategory":2,"la1":30.2991,"la2":30.254,"lo1":-89.0895,"lo2":-89.0444,"dy":0.0017,"dx":0.0017,"nx":28,"ny":28,"refTime":"2025-07-21T21:00:00:Z","depth":"0","parameterNumber":3,"parameterNumberName":"V-component_of_CURRENTS"},"data":[0,0,0,0,0,0,0,0,0,0,0,0,0,0,0,0,0,0,0,0,0,0,0,0,0,0,0,0,0,0,0,0,0,0,0,0,0,0,0,0,0,0,0,0,0,0,0,0,0,0,0,0,0,0,0,0,0,0,-0.005,-0.0052,0,-0.0238,-0.0241,-0.0244,-0.035,-0.035,-0.035,-0.035,-0.0582,-0.0589,-0.0595,0,0,0,0,0,0,0,0,0,0,0,0,0,0.006,0.0059,-0.005,-0.0052,-0.0053,-0.0238,-0.0241,-0.0244,-0.0351,-0.035,-0.035,-0.0349,-0.058,-0.0588,-0.0596,0,0,0,0,0,0,0,0,0,0,0,0,0,-0.005,0.0059,-0.005,-0.0123,-0.0131,-0.0237,-0.0241,-0.0245,-0.0351,-0.035,-0.035,-0.0349,-0.0578,-0.0587,-0.0597,-0.0666,0,0,-0.0626,-0.0631,0,0,0,0,0,0,0,0,-0.0044,-0.0055,-0.0111,-0.0118,-0.0127,-0.0264,-0.0287,-0.0386,-0.0351,-0.0275,-0.035,-0.0349,-0.0475,-0.0494,-0.054,-0.0677,-0.0687,-0.0627,-0.0633,-0.0637,-0.064,0,0,0,0,0,0,0,-0.0036,-0.0048,-0.0132,-0.0112,-0.0122,-0.02,-0.0215,-0.0308,-0.0382,-0.0282,-0.0288,-0.0297,-0.0481,-0.053,-0.0546,-0.069,-0.0627,-0.0636,-0.0642,-0.0645,-0.0821,-0.082,0,0,0,0,0,0,0.001,-0.004,-0.0126,-0.0137,-0.0075,-0.0201,-0.0218,-0.0227,-0.038,-0.0401,-0.0298,-0.0301,-0.0514,-0.0535,-0.0555,-0.0556,-0.0637,-0.0646,-0.0652,-0.0823,-0.0821,-0.082,0,0,0,0,0,0,0.0013,0.0004,-0.0118,-0.0087,-0.0107,-0.0201,-0.0212,-0.023,-0.0269,-0.0391,-0.0413,-0.0314,-0.0514,-0.0541,-0.0615,-0.0569,-0.0651,-0.0659,-0.0824,-0.0822,-0.0821,-0.0616,0,0,0,0,0,0,0.0017,0.0006,0.0008,-0.0084,-0.0107,-0.0165,-0.0212,-0.0234,-0.0272,-0.0279,-0.0413,-0.0434,-0.0516,-0.06,-0.0625,-0.0584,-0.0667,-0.0825,-0.0823,-0.0821,-0.0624,-0.0608,-0.0594,0,0,0,0,0,0.0021,0.0026,0.0009,-0.0002,-0.0099,-0.0164,-0.0184,-0.0256,-0.0272,-0.0289,-0.0367,-0.043,-0.0603,-0.0608,-0.0637,-0.0597,-0.0826,-0.0824,-0.0821,-0.0631,-0.0611,-0.0594,0,0,0,0,0,0,0.008,0.0014,-0.0007,-0.002,-0.0077,-0.0179,-0.0202,-0.0243,-0.0321,-0.0326,-0.0434,-0.0462,-0.0507,-0.0588,-0.059,-0.0642,-0.0718,-0.0722,-0.0564,-0.0546,-0.0531,-0.0465,-0.0675,0,0,0,0,0,0.0097,0.0079,0.001,0.0,-0.0023,-0.0108,-0.0143,-0.0188,-0.0263,-0.0298,-0.0377,-0.046,-0.0524,-0.0561,-0.0645,-0.0685,-0.0711,-0.0674,-0.0659,-0.0645,-0.0612,-0.0609,-0.0589,-0.0811,-0.0811,-0.0811,0,0,0.0116,0.0081,0.007,0.0011,-0.0042,-0.0043,-0.013,-0.0174,-0.0159,-0.0311,-0.0324,-0.0421,-0.0527,-0.0561,-0.0586,-0.0618,-0.0594,-0.0641,-0.0628,-0.0603,-0.0604,-0.0582,-0.0562,-0.081,-0.081,-0.081,0,0,0.0161,0.0119,0.0125,0.0096,0.0039,-0.0008,-0.0006,-0.0091,-0.0117,-0.016,-0.0241,-0.0297,-0.0419,-0.046,-0.0501,-0.0454,-0.0518,-0.0487,-0.0349,-0.0346,-0.0326,-0.0309,-0.0296,-0.0279,-0.047,-0.0469,-0.0469,0,0.0191,0.0207,0.0116,0.0132,0.0136,0.0031,0.0067,0.0021,-0.0069,-0.0066,-0.0135,-0.0248,-0.0357,-0.0346,-0.0338,-0.0412,-0.0421,-0.0405,-0.0319,-0.0304,-0.029,-0.0281,-0.0265,-0.0459,-0.046,-0.0461,-0.0462,0,0.0253,0.0275,0.0279,0.0279,0.0258,0.0267,0.0214,0.0198,0.0152,0.0114,0.0093,-0.0047,-0.0106,-0.0146,-0.024,-0.0184,-0.0225,-0.0301,-0.0351,-0.0254,-0.0252,-0.0239,-0.0445,-0.0448,-0.0451,-0.0454,0,0,0.0313,0.0326,0.0335,0.0383,0.035,0.0347,0.0377,0.0382,0.0433,0.0334,0.0404,0.0264,0.0185,0.0134,0.0025,0.002,0.0084,-0.0089,-0.0094,-0.0046,0.0113,0.0053,0.006,0.0028,0.0031,0.0034,0.0083,0,0.0405,0.0502,0.0467,0.0569,0.0624,0.0563,0.0609,0.0595,0.0562,0.0594,0.0489,0.0482,0.0297,0.0278,0.0241,0.012,0.0124,0.0079,-0.0014,-0.0016,-0.0057,0.0075,0.0032,0.007,0.0095,0.0097,0.0098,0,0.0504,0.0558,0.068,0.0761,0.0775,0.0811,0.0881,0.0903,0.0908,0.0882,0.0853,0.0761,0.0729,0.056,0.0443,0.0424,0.0291,0.0198,0.0196,0.0083,-0.0052,-0.0033,0.009,-0.017,0.0117,0.0115,0.0114,0,0.0637,0.0723,0.0838,0.0864,0.0914,0.096,0.0988,0.1,0.1052,0.1086,0.1132,0.1046,0.1022,0.0867,0.0611,0.0546,0.0502,0.038,0.022,0.0214,0.013,0.0112,0.0015,0.0337,0.0337,0.0337,0.0337,0,0.0779,0.0874,0.0913,0.0978,0.1112,0.1096,0.1225,0.1238,0.1294,0.1398,0.129,0.1364,0.1097,0.1008,0.0758,0.0542,0.0607,0.0295,0.0241,0.0198,0.0186,-0.0089,-0.0246,0.0339,0.0339,0.0338,0.0338,0,0.0912,0.0946,0.1076,0.115,0.118,0.1274,0.137,0.1457,0.1499,0.1645,0.1676,0.1629,0.1525,0.1256,0.1021,0.0743,0.0387,0.0439,0.0411,0.0352,-0.0067,-0.0211,-0.0356,-0.0449,0.03,0.0299,0.0298,0,0.0995,0.1075,0.1191,0.1256,0.1289,0.1412,0.149,0.1554,0.1651,0.1811,0.1902,0.1879,0.1878,0.1527,0.1068,0.0697,0.0409,0.0372,0.022,-0.0044,-0.0244,-0.0356,-0.0432,0.0197,0.0196,0.0195,0.0194,0,0.1118,0.115,0.1231,0.1366,0.1464,0.1596,0.1722,0.184,0.1941,0.2103,0.2286,0.2332,0.2014,0.1631,0.109,0.0781,0.0177,0.0333,0.0072,-0.0298,-0.0435,-0.0567,0.0118,0.0182,0.0184,0.0184,0.0185,0.0185,0.1174,0.1246,0.1323,0.1454,0.1579,0.1737,0.1871,0.2034,0.225,0.2509,0.2548,0.2668,0.2082,0.1361,0.0931,0.0081,0.0111,-0.0209,-0.0345,-0.0419,-0.0562,0.0109,0.0087,0.0087,0.0088,0.0088,0.0089,0,0.1205,0.1273,0.1395,0.1544,0.1687,0.1747,0.1981,0.2143,0.2428,0.2685,0.2879,0.2629,0.1922,0.1168,0.0052,-0.0506,-0.0709,-0.0815,-0.0995,-0.1026,-0.0414,-0.0477,-0.0638,-0.0637,-0.0637,-0.0637,-0.0637,-0.0636,0.1212,0.1304,0.1366,0.1577,0.17,0.1906,0.2053,0.2337,0.2562,0.2861,0.2929,0.2947,0.2297,0.0409,-0.0867,-0.1147,-0.1511,-0.1615,-0.1741,-0.1377,-0.1332,-0.1289,-0.1384,-0.1732,-0.1733,-0.23,-0.2306,-0.2311]}],[{"header":{"parameterUnit":"m.s-1","parameterCategory":2,"la1":30.2991,"la2":30.254,"lo1":-89.0895,"lo2":-89.0444,"dy":0.0017,"dx":0.0017,"nx":28,"ny":28,"refTime":"2025-07-21T21:00:00:Z","depth":"2","parameterNumber":2,"parameterNumberName":"U-component_of_CURRENTS"},"data":[0,0,0,0,0,0,0,0,0,0,0,0,0,0,0,0,0,0,0,0,0,0,0,0,0,0,0,0,0,0,0,0,0,0,0,0,0,0,0,0,0,0,0,0,0,0,0,0,0,0,0,0,0,0,0,0,0,0,0.3524,0.3527,0,0.343,0.3425,0.3421,0.3383,0.3387,0.3391,0.3395,0.351,0.3509,0.3508,0,0,0,0,0,0,0,0,0,0,0,0,0,0.3233,0.3237,0.3524,0.3527,0.353,0.3431,0.3425,0.342,0.3382,0.3387,0.3392,0.3397,0.351,0.3509,0.3508,0,0,0,0,0,0,0,0,0,0,0,0,0,0.3231,0.3239,0.3524,0.3531,0.3534,0.3432,0.3425,0.3418,0.3381,0.3387,0.3394,0.3399,0.351,0.3509,0.3508,0.3374,0,0,0.3504,0.3503,0,0,0,0,0,0,0,0,0.3231,0.3236,0.3527,0.3531,0.3534,0.3463,0.3367,0.3429,0.3379,0.3393,0.3395,0.3403,0.3537,0.3533,0.3437,0.3379,0.3384,0.3504,0.3503,0.3502,0.3502,0,0,0,0,0,0,0,0.3232,0.3238,0.3443,0.3531,0.3535,0.3392,0.3397,0.3371,0.3401,0.3392,0.34,0.3456,0.3535,0.3438,0.3441,0.3386,0.3504,0.3503,0.3502,0.3501,0.3556,0.3558,0,0,0,0,0,0,0.3348,0.3241,0.3447,0.3445,0.3444,0.3397,0.3401,0.3444,0.3397,0.3407,0.3451,0.3456,0.3437,0.3443,0.3446,0.3623,0.3502,0.3501,0.35,0.3554,0.3557,0.3559,0,0,0,0,0,0,0.3341,0.3366,0.3451,0.3374,0.3382,0.3403,0.3446,0.344,0.3377,0.3448,0.3454,0.3409,0.3442,0.3448,0.3609,0.3617,0.3501,0.3499,0.3551,0.3555,0.3558,0.3764,0,0,0,0,0,0,0.3332,0.3362,0.3415,0.3383,0.3393,0.3445,0.3445,0.3435,0.3423,0.3426,0.3412,0.3427,0.3448,0.3612,0.3608,0.3613,0.3498,0.3549,0.3553,0.3557,0.3755,0.3774,0.3791,0,0,0,0,0,0.3321,0.3405,0.3416,0.3444,0.3469,0.345,0.3433,0.3438,0.3416,0.3392,0.35,0.3428,0.363,0.3617,0.361,0.3614,0.3547,0.3552,0.3557,0.3746,0.377,0.3791,0,0,0,0,0,0,0.3296,0.3412,0.3423,0.3535,0.3521,0.3463,0.3466,0.3426,0.3448,0.35,0.3504,0.3529,0.3653,0.3605,0.3588,0.3638,0.3551,0.3555,0.3697,0.3719,0.3737,0.3783,0.3497,0,0,0,0,0,0.3324,0.3384,0.3454,0.3502,0.3532,0.3468,0.3458,0.3467,0.3504,0.3506,0.3558,0.3601,0.3637,0.3677,0.371,0.3746,0.3745,0.3726,0.3744,0.376,0.3792,0.3835,0.3862,0.3576,0.3576,0.3576,0,0,0.3317,0.3385,0.3419,0.3496,0.3469,0.354,0.3465,0.3486,0.3555,0.3528,0.3669,0.3682,0.367,0.3769,0.3804,0.3751,0.385,0.3766,0.3781,0.3805,0.3844,0.3872,0.3897,0.3579,0.3578,0.3578,0,0,0.3347,0.34,0.3489,0.3507,0.3573,0.3569,0.359,0.3612,0.3641,0.3771,0.378,0.3852,0.3897,0.3917,0.3912,0.4025,0.3955,0.3978,0.4102,0.4144,0.4169,0.4191,0.4273,0.43,0.3975,0.3975,0.3976,0,0.3369,0.3457,0.3488,0.3583,0.3634,0.3604,0.37,0.3708,0.3797,0.3851,0.3887,0.3999,0.3965,0.4059,0.4102,0.4064,0.4102,0.4027,0.4173,0.4194,0.4212,0.4291,0.4318,0.3986,0.3985,0.3983,0.3982,0,0.3443,0.3541,0.3574,0.3709,0.3771,0.3805,0.3919,0.3985,0.4035,0.4061,0.4218,0.4256,0.4317,0.4268,0.4222,0.4303,0.4296,0.4206,0.4128,0.4255,0.4328,0.4354,0.4001,0.3997,0.3994,0.3991,0,0,0.3456,0.3611,0.3632,0.3722,0.3839,0.3906,0.4057,0.4163,0.4263,0.4378,0.4534,0.4553,0.456,0.4556,0.4504,0.4514,0.4646,0.442,0.4417,0.4525,0.4803,0.4653,0.4665,0.4596,0.46,0.4603,0.482,0,0.3498,0.3685,0.3767,0.3943,0.4053,0.412,0.4259,0.4377,0.4465,0.463,0.4664,0.4778,0.4672,0.4717,0.4736,0.4618,0.4715,0.4599,0.4645,0.4648,0.4514,0.4688,0.4292,0.4438,0.4844,0.4848,0.4851,0,0.3577,0.3685,0.3863,0.4091,0.4154,0.4283,0.4495,0.4623,0.4797,0.4879,0.5018,0.5041,0.5088,0.5006,0.5009,0.4946,0.4935,0.4876,0.4881,0.4684,0.4542,0.4364,0.4467,0.4891,0.4888,0.4885,0.4882,0,0.3558,0.379,0.3917,0.3975,0.4215,0.4347,0.4504,0.4693,0.4777,0.5047,0.5098,0.5258,0.5276,0.5308,0.5189,0.5101,0.5236,0.5077,0.5003,0.4994,0.4634,0.4584,0.5222,0.5222,0.5222,0.5221,0.522,0,0.3571,0.3697,0.3929,0.3987,0.4192,0.4411,0.4616,0.4783,0.4985,0.507,0.5223,0.5287,0.5336,0.5389,0.5343,0.5259,0.5374,0.509,0.5049,0.4696,0.4651,0.4991,0.4962,0.5229,0.5227,0.5226,0.5224,0,0.3582,0.3644,0.383,0.4094,0.4176,0.4364,0.4626,0.4718,0.4936,0.507,0.5138,0.5272,0.5286,0.5395,0.5431,0.5357,0.5355,0.5358,0.4975,0.4882,0.5057,0.5036,0.5223,0.5219,0.5217,0.5214,0.5212,0,0.3598,0.368,0.3922,0.3922,0.4039,0.4289,0.4373,0.4668,0.4726,0.4991,0.4992,0.5135,0.5151,0.5234,0.5183,0.5232,0.5362,0.4927,0.4643,0.5122,0.5064,0.5046,0.5029,0.4284,0.4274,0.4267,0.4261,0,0.3626,0.3699,0.3801,0.3851,0.3914,0.404,0.4218,0.4238,0.4525,0.4635,0.4695,0.4766,0.486,0.4671,0.4835,0.4788,0.4857,0.476,0.5402,0.4318,0.4245,0.4184,0.4197,0.4192,0.4199,0.4204,0.4208,0.421,0.3606,0.3653,0.3692,0.3735,0.3761,0.3739,0.3835,0.3899,0.3989,0.4089,0.4251,0.4261,0.4332,0.423,0.4171,0.416,0.4414,0.424,0.4261,0.429,0.4116,0.4038,0.3919,0.3924,0.3929,0.3933,0.3936,0,0.3512,0.3523,0.354,0.3508,0.3469,0.3596,0.3653,0.3622,0.364,0.3706,0.3747,0.3449,0.3392,0.3532,0.3368,0.3384,0.3324,0.3287,0.317,0.3242,0.3305,0.3076,0.2607,0.2602,0.2598,0.2595,0,0,0.3436,0.3314,0.3312,0.3171,0.3215,0.3221,0.3259,0.3139,0.3157,0.3004,0.3019,0.3165,0.3388,0.2905,0.2877,0.2724,0.2956,0.2631,0.3703,0.3635,0.3692,0.3869,0.36,0,0,0,0,0]},{"header":{"parameterUnit":"m.s-1","parameterCategory":2,"la1":30.2991,"la2":30.254,"lo1":-89.0895,"lo2":-89.0444,"dy":0.0017,"dx":0.0017,"nx":28,"ny":28,"refTime":"2025-07-21T21:00:00:Z","depth":"2","parameterNumber":3,"parameterNumberName":"V-component_of_CURRENTS"},"data":[0,0,0,0,0,0,0,0,0,0,0,0,0,0,0,0,0,0,0,0,0,0,0,0,0,0,0,0,0,0,0,0,0,0,0,0,0,0,0,0,0,0,0,0,0,0,0,0,0,0,0,0,0,0,0,0,0,0,0.0176,0.0175,0,0.0177,0.0178,0.0179,0.0137,0.0135,0.0133,0.0131,-0.0043,-0.0046,-0.0048,0,0,0,0,0,0,0,0,0,0,0,0,0,0.0176,0.0176,0.0176,0.0175,0.0174,0.0177,0.0178,0.0179,0.0137,0.0135,0.0132,0.013,-0.0042,-0.0045,-0.0049,0,0,0,0,0,0,0,0,0,0,0,0,0,0.0185,0.0177,0.0176,0.0147,0.0144,0.0177,0.0178,0.0179,0.0137,0.0134,0.0132,0.0129,-0.0041,-0.0045,-0.0049,-0.0017,0,0,-0.0062,-0.0064,0,0,0,0,0,0,0,0,0.0184,0.0186,0.0152,0.0149,0.0145,0.0146,0.0114,0.0102,0.0138,0.0149,0.0131,0.0127,0.0,-0.0007,0.0015,-0.0025,-0.0033,-0.0062,-0.0065,-0.0067,-0.0068,0,0,0,0,0,0,0,0.0184,0.0186,0.0185,0.0151,0.0147,0.0147,0.0146,0.0113,0.0095,0.0148,0.0143,0.013,-0.0002,0.0019,0.0009,-0.0035,-0.0062,-0.0066,-0.0069,-0.007,-0.0169,-0.0169,0,0,0,0,0,0,0.0167,0.0185,0.0185,0.0184,0.0148,0.0148,0.0148,0.0156,0.0099,0.0086,0.0132,0.0128,0.0028,0.0014,0.0003,-0.0073,-0.0067,-0.0071,-0.0073,-0.0169,-0.0169,-0.0169,0,0,0,0,0,0,0.0168,0.0168,0.0185,0.0176,0.0177,0.015,0.0161,0.0157,0.0174,0.0087,0.0072,0.015,0.0025,0.0009,-0.0092,-0.0077,-0.0073,-0.0076,-0.0169,-0.0169,-0.0169,-0.0156,0,0,0,0,0,0,0.0168,0.0169,0.0177,0.0176,0.0177,0.022,0.0163,0.0159,0.0166,0.0161,0.0098,0.0079,0.0021,-0.0086,-0.0097,-0.0083,-0.008,-0.0169,-0.0169,-0.0169,-0.0156,-0.0156,-0.0155,0,0,0,0,0,0.0169,0.0188,0.0179,0.0178,0.0187,0.0222,0.0225,0.02,0.017,0.0202,0.009,0.0081,-0.0092,-0.0092,-0.0103,-0.009,-0.0168,-0.0169,-0.0169,-0.0157,-0.0156,-0.0155,0,0,0,0,0,0,0.0198,0.0185,0.0174,0.019,0.021,0.0211,0.0229,0.0216,0.017,0.0131,0.0054,0.0028,-0.004,-0.0069,-0.0065,-0.0116,-0.0119,-0.0121,-0.0105,-0.0105,-0.0104,-0.0079,-0.0083,0,0,0,0,0,0.0208,0.0224,0.0217,0.0242,0.0247,0.0246,0.0254,0.0235,0.0188,0.017,0.0097,0.0019,-0.0039,-0.0083,-0.0132,-0.0173,-0.0181,-0.0163,-0.0162,-0.0161,-0.0148,-0.0164,-0.0163,-0.017,-0.017,-0.017,0,0,0.0224,0.0223,0.023,0.025,0.0261,0.0271,0.0248,0.0262,0.0242,0.0152,0.008,0.0019,-0.0049,-0.0111,-0.0138,-0.0144,-0.0166,-0.0162,-0.0161,-0.0148,-0.0164,-0.0163,-0.0163,-0.017,-0.017,-0.017,0,0,0.0277,0.0272,0.0301,0.0316,0.0319,0.0303,0.031,0.029,0.0256,0.0179,0.0109,0.0035,-0.0056,-0.0106,-0.014,-0.0157,-0.0157,-0.015,-0.0138,-0.0154,-0.0153,-0.0153,-0.017,-0.0171,-0.0156,-0.0156,-0.0156,0,0.029,0.0334,0.0321,0.0352,0.035,0.0317,0.0337,0.031,0.0242,0.0213,0.0145,0.0034,-0.0052,-0.0084,-0.0129,-0.0153,-0.0161,-0.014,-0.0152,-0.0152,-0.0152,-0.0169,-0.0171,-0.0155,-0.0155,-0.0156,-0.0156,0,0.0373,0.0394,0.042,0.0429,0.0421,0.0449,0.0384,0.0358,0.0279,0.0237,0.0174,0.0057,0.001,-0.0033,-0.0119,-0.0129,-0.0135,-0.0145,-0.0152,-0.015,-0.0169,-0.0171,-0.0155,-0.0155,-0.0155,-0.0155,0,0,0.0425,0.0469,0.0473,0.0487,0.0462,0.0466,0.0418,0.039,0.0386,0.0276,0.0292,0.012,0.0095,0.0055,-0.0007,-0.0072,-0.0129,-0.0125,-0.0126,-0.0139,-0.0162,-0.022,-0.0228,-0.0139,-0.0139,-0.0139,-0.0179,0,0.0499,0.0577,0.0551,0.0581,0.0609,0.0543,0.0521,0.0466,0.0398,0.0397,0.0298,0.028,0.0128,0.0124,0.0033,-0.0065,-0.0131,-0.0117,-0.0164,-0.0165,-0.0215,-0.0231,-0.0199,-0.0236,-0.0181,-0.0181,-0.0181,0,0.0584,0.062,0.068,0.0675,0.0677,0.0668,0.0633,0.0611,0.0582,0.0545,0.0511,0.0462,0.0378,0.0264,0.0081,0.0101,-0.0037,-0.0139,-0.0142,-0.0197,-0.0227,-0.0228,-0.0241,-0.0184,-0.0184,-0.0184,-0.0184,0,0.0652,0.0694,0.0745,0.0751,0.074,0.073,0.0711,0.0663,0.0671,0.0684,0.0706,0.0621,0.061,0.0428,0.0179,0.0138,-0.0003,-0.0065,-0.0238,-0.0243,-0.0225,-0.0229,-0.0184,-0.0183,-0.0183,-0.0183,-0.0183,0,0.0744,0.0775,0.0791,0.082,0.0862,0.081,0.0852,0.0827,0.0856,0.092,0.0815,0.0867,0.064,0.0529,0.0281,0.0023,0.0083,-0.0235,-0.0258,-0.0223,-0.0225,-0.0184,-0.0183,-0.0185,-0.0184,-0.0184,-0.0184,0,0.0796,0.0839,0.0884,0.0892,0.0905,0.0923,0.0956,0.0997,0.0999,0.1103,0.1129,0.1064,0.0906,0.0659,0.0404,0.0166,-0.007,-0.0171,-0.0119,-0.0139,-0.0329,-0.0327,-0.0377,-0.0379,-0.0381,-0.0383,-0.0385,0,0.0839,0.0878,0.0926,0.0971,0.0977,0.1022,0.1071,0.1085,0.1149,0.1222,0.1297,0.1206,0.1164,0.0766,0.0365,-0.0017,-0.0071,-0.0247,-0.0356,-0.0332,-0.0349,-0.0344,-0.034,-0.0323,-0.0324,-0.0325,-0.0325,0,0.087,0.0888,0.0921,0.1035,0.1097,0.1179,0.1255,0.1366,0.1426,0.1515,0.1624,0.1609,0.1213,0.085,0.0321,0.0048,-0.0192,-0.0279,-0.0223,-0.0293,-0.0289,-0.0304,-0.03,-0.0331,-0.0331,-0.033,-0.033,-0.033,0.0873,0.0908,0.0982,0.1081,0.1177,0.1345,0.1471,0.1597,0.178,0.1934,0.1867,0.1815,0.1357,0.0667,0.0223,-0.0249,-0.0265,-0.0442,-0.0436,-0.043,-0.0431,-0.0432,-0.0501,-0.0501,-0.0502,-0.0502,-0.0502,0,0.088,0.0935,0.1028,0.1187,0.133,0.1362,0.1592,0.175,0.2025,0.2092,0.2136,0.1696,0.1256,0.0746,0.0031,-0.0414,-0.0432,-0.0536,-0.0459,-0.0451,-0.0445,-0.0443,-0.0519,-0.052,-0.052,-0.0521,0,0,0.0883,0.0988,0.1053,0.13,0.1416,0.1628,0.1794,0.2041,0.216,0.2268,0.2201,0.1997,0.1385,0.0863,0.0272,-0.0108,-0.0174,-0.0187,-0.0133,0.0034,0.0046,-0.036,-0.0346,0,0,0,0,0]}],[{"header":{"parameterUnit":"m.s-1","parameterCategory":2,"la1":30.2991,"la2":30.254,"lo1":-89.0895,"lo2":-89.0444,"dy":0.0017,"dx":0.0017,"nx":28,"ny":28,"refTime":"2025-07-21T21:00:00:Z","depth":"4","parameterNumber":2,"parameterNumberName":"U-component_of_CURRENTS"},"data":[0,0,0,0,0,0,0,0,0,0,0,0,0,0,0,0,0,0,0,0,0,0,0,0,0,0,0,0,0,0,0,0,0,0,0,0,0,0,0,0,0,0,0,0,0,0,0,0,0,0,0,0,0,0,0,0,0,0,0.1548,0.1548,0,0.1518,0.1517,0.1516,0.1615,0.1619,0.1622,0.1625,0.1748,0.1748,0.1748,0,0,0,0,0,0,0,0,0,0,0,0,0,0.1534,0.1534,0.1548,0.1548,0.1548,0.1518,0.1517,0.1516,0.1615,0.1619,0.1623,0.1627,0.1747,0.1748,0.1748,0,0,0,0,0,0,0,0,0,0,0,0,0,0.1522,0.1534,0.1548,0.1597,0.1601,0.1518,0.1517,0.1516,0.1614,0.1619,0.1624,0.1629,0.1747,0.1748,0.1748,0.1649,0,0,0.1748,0.1749,0,0,0,0,0,0,0,0,0.1523,0.1522,0.159,0.1593,0.1598,0.1579,0.1557,0.1569,0.1613,0.1605,0.1625,0.1631,0.1704,0.1708,0.1684,0.1655,0.166,0.1749,0.1749,0.1749,0.1749,0,0,0,0,0,0,0,0.1524,0.1523,0.1533,0.1589,0.1594,0.1566,0.1571,0.1558,0.1627,0.1606,0.1614,0.1615,0.1708,0.1683,0.1688,0.1662,0.1749,0.1749,0.1749,0.1749,0.1849,0.1852,0,0,0,0,0,0,0.1538,0.1524,0.1534,0.1532,0.1576,0.1563,0.1568,0.1577,0.1624,0.1636,0.1611,0.162,0.168,0.1687,0.1693,0.1818,0.1749,0.1749,0.1749,0.1847,0.185,0.1853,0,0,0,0,0,0,0.1537,0.1539,0.1535,0.153,0.1529,0.1559,0.1567,0.1574,0.1614,0.1626,0.1642,0.1654,0.1684,0.1693,0.1732,0.1816,0.1749,0.1749,0.1844,0.1848,0.1851,0.1917,0,0,0,0,0,0,0.1537,0.1539,0.1532,0.1531,0.153,0.1504,0.1563,0.157,0.1605,0.1618,0.1666,0.1679,0.1689,0.1731,0.1732,0.1815,0.1749,0.184,0.1845,0.185,0.1912,0.1922,0.1932,0,0,0,0,0,0.1537,0.1502,0.1532,0.1533,0.1526,0.1504,0.1499,0.1534,0.1603,0.1596,0.1654,0.1681,0.1766,0.173,0.1731,0.1817,0.1838,0.1844,0.185,0.1907,0.192,0.1932,0,0,0,0,0,0,0.1508,0.1509,0.1543,0.1518,0.1526,0.1523,0.1512,0.1555,0.1586,0.1634,0.1668,0.1681,0.1776,0.1763,0.1725,0.1865,0.1823,0.1829,0.1867,0.188,0.189,0.1924,0.175,0,0,0,0,0,0.1493,0.1492,0.1485,0.1492,0.148,0.1511,0.1508,0.155,0.158,0.1603,0.1636,0.1701,0.178,0.1803,0.1846,0.1867,0.1889,0.1939,0.1949,0.1958,0.1989,0.2061,0.208,0.1871,0.1871,0.1871,0,0,0.1499,0.1501,0.1506,0.1488,0.1499,0.149,0.1523,0.1544,0.159,0.1608,0.1674,0.1736,0.1799,0.1867,0.1908,0.1873,0.2028,0.1965,0.1972,0.1999,0.2069,0.2089,0.2107,0.1875,0.1874,0.1874,0,0,0.1498,0.1501,0.1483,0.1482,0.1498,0.1502,0.1523,0.1537,0.1591,0.1634,0.1718,0.1814,0.1859,0.1939,0.1989,0.2067,0.2095,0.2106,0.2163,0.2232,0.2249,0.2265,0.2312,0.2331,0.2091,0.2091,0.2091,0,0.15,0.1488,0.1478,0.1465,0.1483,0.152,0.1527,0.1559,0.1605,0.1678,0.1677,0.1866,0.1906,0.2063,0.2111,0.2097,0.213,0.2107,0.2245,0.2261,0.2276,0.232,0.2341,0.2095,0.2094,0.2094,0.2094,0,0.148,0.148,0.1473,0.1482,0.1492,0.1503,0.1548,0.1584,0.166,0.1738,0.1906,0.1949,0.2075,0.2117,0.214,0.2303,0.2291,0.2262,0.221,0.2301,0.2341,0.2362,0.21,0.2099,0.2098,0.2097,0,0,0.1474,0.1452,0.1469,0.1482,0.1509,0.1524,0.1593,0.1676,0.1784,0.1855,0.1997,0.2147,0.2222,0.2284,0.2336,0.2393,0.2522,0.238,0.2382,0.2421,0.2677,0.25,0.2505,0.2519,0.2524,0.2527,0.2657,0,0.1469,0.1456,0.1459,0.1498,0.1486,0.1546,0.1622,0.1739,0.1836,0.1961,0.2103,0.2274,0.2274,0.2372,0.2428,0.2551,0.2582,0.249,0.2589,0.2593,0.2419,0.2525,0.2541,0.2672,0.2677,0.2681,0.2683,0,0.1448,0.1444,0.1461,0.1522,0.1532,0.158,0.173,0.182,0.2017,0.2116,0.2285,0.2392,0.2591,0.2519,0.2731,0.2682,0.2685,0.2716,0.2721,0.2553,0.2454,0.2566,0.272,0.2717,0.2714,0.2712,0.2709,0,0.1447,0.146,0.1486,0.1501,0.1559,0.1627,0.1716,0.1901,0.2002,0.2264,0.236,0.2584,0.2727,0.2797,0.2888,0.2837,0.3053,0.2972,0.2794,0.2781,0.2869,0.285,0.3041,0.3041,0.3041,0.304,0.304,0,0.1413,0.1436,0.1497,0.1499,0.1582,0.1682,0.1819,0.1939,0.2131,0.2279,0.2479,0.2582,0.2806,0.2932,0.2952,0.2974,0.3109,0.2843,0.2817,0.2891,0.2874,0.2882,0.2862,0.3045,0.3044,0.3043,0.3042,0,0.1356,0.1409,0.1417,0.1506,0.1559,0.1646,0.1817,0.1906,0.2149,0.2319,0.2422,0.2666,0.2871,0.3008,0.3165,0.306,0.3095,0.3026,0.3135,0.3108,0.275,0.2732,0.2859,0.2854,0.285,0.2847,0.2844,0,0.1288,0.1281,0.139,0.1421,0.1451,0.1591,0.1671,0.1901,0.1984,0.2324,0.2371,0.266,0.2795,0.2904,0.3046,0.3109,0.3026,0.3021,0.2847,0.2776,0.274,0.2728,0.2716,0.2838,0.2837,0.2835,0.2834,0,0.1091,0.1164,0.118,0.1263,0.1344,0.1431,0.1571,0.1628,0.1917,0.2118,0.2299,0.2437,0.2636,0.2787,0.2883,0.2885,0.3044,0.2976,0.2982,0.2817,0.2751,0.2716,0.2709,0.282,0.2822,0.2824,0.2824,0,0.0947,0.0935,0.099,0.1068,0.115,0.124,0.1364,0.1483,0.1626,0.1998,0.2045,0.2355,0.26,0.2666,0.274,0.2784,0.2696,0.2571,0.2595,0.2612,0.2472,0.2348,0.2303,0,0,0,0,0,0.0785,0.0779,0.0783,0.0878,0.0947,0.1041,0.1245,0.1387,0.1667,0.173,0.1892,0.2067,0.2257,0.2395,0.2388,0.2593,0.2689,0.2567,0.2549,0.2741,0.2758,0.2616,0,0,0,0,0,0,0.0683,0.0686,0.0711,0.067,0.0718,0.0819,0.0976,0.1201,0.1253,0.1552,0.1667,0.1881,0.209,0.2225,0.2322,0.2365,0.2299,0.274,0.2734,0.2732,0.2747,0.276,0.262,0,0,0,0,0]},{"header":{"parameterUnit":"m.s-1","parameterCategory":2,"la1":30.2991,"la2":30.254,"lo1":-89.0895,"lo2":-89.0444,"dy":0.0017,"dx":0.0017,"nx":28,"ny":28,"refTime":"2025-07-21T21:00:00:Z","depth":"4","parameterNumber":3,"parameterNumberName":"V-component_of_CURRENTS"},"data":[0,0,0,0,0,0,0,0,0,0,0,0,0,0,0,0,0,0,0,0,0,0,0,0,0,0,0,0,0,0,0,0,0,0,0,0,0,0,0,0,0,0,0,0,0,0,0,0,0,0,0,0,0,0,0,0,0,0,0.0338,0.0338,0,0.0326,0.0326,0.0326,0.0319,0.0318,0.0318,0.0318,0.0269,0.0267,0.0266,0,0,0,0,0,0,0,0,0,0,0,0,0,0.0258,0.0261,0.0338,0.0338,0.0338,0.0326,0.0326,0.0326,0.0319,0.0318,0.0318,0.0318,0.0269,0.0268,0.0266,0,0,0,0,0,0,0,0,0,0,0,0,0,0.0275,0.0261,0.0338,0.0332,0.0332,0.0326,0.0326,0.0326,0.0319,0.0318,0.0318,0.0318,0.027,0.0268,0.0266,0.0256,0,0,0.026,0.0259,0,0,0,0,0,0,0,0,0.0274,0.0278,0.0333,0.0333,0.0332,0.0323,0.028,0.0301,0.0319,0.0324,0.0318,0.0318,0.0283,0.028,0.0279,0.0254,0.0252,0.026,0.0259,0.0258,0.0257,0,0,0,0,0,0,0,0.0273,0.0278,0.0334,0.0333,0.0332,0.0297,0.0301,0.0283,0.0304,0.0323,0.0323,0.0321,0.0283,0.0281,0.0278,0.0251,0.026,0.0258,0.0257,0.0256,0.0194,0.0194,0,0,0,0,0,0,0.028,0.0278,0.0334,0.0333,0.0302,0.0299,0.0303,0.0327,0.0305,0.0302,0.0321,0.0321,0.0284,0.028,0.0276,0.0272,0.0258,0.0256,0.0255,0.0195,0.0194,0.0194,0,0,0,0,0,0,0.0278,0.0286,0.0334,0.0303,0.0307,0.0302,0.0328,0.0326,0.0333,0.0303,0.03,0.033,0.0284,0.0279,0.0282,0.0269,0.0255,0.0254,0.0195,0.0195,0.0194,0.0257,0,0,0,0,0,0,0.0277,0.0286,0.0306,0.0305,0.0309,0.0346,0.0328,0.0326,0.0331,0.0331,0.0309,0.0304,0.0284,0.0285,0.028,0.0266,0.0252,0.0196,0.0195,0.0194,0.0256,0.0259,0.0261,0,0,0,0,0,0.0274,0.0312,0.0307,0.0314,0.0337,0.0347,0.0347,0.0341,0.0332,0.0344,0.0334,0.0305,0.0273,0.0285,0.0278,0.0264,0.0197,0.0195,0.0194,0.0255,0.0258,0.0261,0,0,0,0,0,0,0.0289,0.0315,0.031,0.0353,0.0352,0.0346,0.0355,0.0348,0.0349,0.035,0.0319,0.0315,0.0306,0.0277,0.029,0.0239,0.0221,0.0219,0.0269,0.0272,0.0275,0.0273,0.0251,0,0,0,0,0,0.03,0.0336,0.034,0.0372,0.0374,0.0363,0.0366,0.0365,0.0363,0.0363,0.0345,0.0317,0.0293,0.0282,0.026,0.0246,0.0185,0.0223,0.0226,0.0228,0.022,0.0118,0.0111,0.019,0.019,0.019,0,0,0.031,0.033,0.0348,0.0376,0.0372,0.0381,0.0366,0.0381,0.0384,0.0357,0.0358,0.0335,0.0294,0.0279,0.0269,0.0256,0.0176,0.0227,0.023,0.022,0.0116,0.0108,0.0102,0.0189,0.0189,0.0189,0,0,0.0346,0.0368,0.0403,0.0411,0.0419,0.0406,0.0413,0.0412,0.0409,0.0414,0.0384,0.0359,0.0333,0.0293,0.027,0.0271,0.02,0.0257,0.0266,0.0168,0.016,0.0153,0.008,0.0065,0.0252,0.0252,0.0252,0,0.0353,0.0402,0.0411,0.0439,0.0441,0.0419,0.0437,0.0431,0.043,0.0422,0.0422,0.0355,0.0331,0.0282,0.0288,0.0276,0.0217,0.0264,0.0171,0.0163,0.0154,0.0081,0.0064,0.0255,0.0254,0.0254,0.0254,0,0.0415,0.0441,0.046,0.0483,0.0487,0.0503,0.049,0.0487,0.0472,0.0458,0.0424,0.0386,0.0339,0.0322,0.0314,0.0237,0.0216,0.0194,0.0167,0.015,0.0074,0.0055,0.0259,0.0258,0.0257,0.0256,0,0,0.0453,0.0494,0.0501,0.051,0.0513,0.0525,0.0518,0.0503,0.0494,0.0472,0.044,0.0399,0.0368,0.0338,0.03,0.0222,0.0129,0.0192,0.0185,0.0127,-0.0077,-0.0046,-0.0064,0.0089,0.0086,0.0084,-0.01,0,0.0487,0.0549,0.0554,0.058,0.0597,0.0572,0.0568,0.0554,0.0524,0.0491,0.0426,0.0398,0.0374,0.0357,0.027,0.017,0.008,0.0182,-0.006,-0.0067,-0.0031,-0.0084,0.0073,-0.0114,-0.0119,-0.0122,-0.0124,0,0.054,0.057,0.0618,0.0624,0.063,0.0644,0.062,0.0621,0.0563,0.0542,0.0478,0.0425,0.0328,0.0305,0.0092,0.0159,0.0044,-0.0044,-0.0054,-0.0063,-0.0071,-0.0101,-0.0159,-0.0156,-0.0153,-0.0151,-0.0149,0,0.0566,0.0607,0.0645,0.0655,0.0664,0.0677,0.0681,0.0646,0.065,0.058,0.0562,0.0423,0.0367,0.0192,0.0033,0.0051,-0.0214,-0.0219,-0.031,-0.0309,-0.0308,-0.0298,-0.04,-0.04,-0.04,-0.0399,-0.0399,0,0.0596,0.0627,0.0672,0.0694,0.0739,0.0733,0.0767,0.0743,0.0709,0.0715,0.0605,0.0553,0.0335,0.017,0.0009,-0.0201,-0.0244,-0.0326,-0.0366,-0.0273,-0.0258,-0.032,-0.0308,-0.0406,-0.0405,-0.0403,-0.0402,0,0.0621,0.0649,0.0699,0.0736,0.0758,0.0804,0.0857,0.0874,0.0835,0.0826,0.0811,0.0637,0.0435,0.0206,-0.0085,-0.0209,-0.0423,-0.0493,-0.037,-0.0396,-0.0448,-0.0431,-0.0622,-0.0622,-0.0623,-0.0623,-0.0624,0,0.0643,0.0671,0.075,0.0798,0.0827,0.0901,0.0949,0.0948,0.0959,0.0883,0.0865,0.0676,0.0547,0.0155,-0.0091,-0.0425,-0.046,-0.0578,-0.0523,-0.0458,-0.0478,-0.0459,-0.0442,-0.0625,-0.0625,-0.0625,-0.0625,0,0.0665,0.0701,0.0746,0.0848,0.0924,0.1011,0.1072,0.1086,0.1074,0.104,0.0915,0.0715,0.0475,0.0172,-0.0092,-0.0327,-0.0504,-0.0584,-0.0584,-0.0534,-0.0464,-0.0478,-0.0461,-0.0627,-0.0627,-0.0627,-0.0626,0,0.0691,0.0732,0.0795,0.0883,0.0975,0.1063,0.1117,0.1121,0.1127,0.1034,0.0991,0.0739,0.0579,0.022,-0.0024,-0.0251,-0.03,-0.0365,-0.0377,-0.0378,-0.0241,-0.0112,-0.022,0,0,0,0,0,0.0701,0.0741,0.082,0.0916,0.1006,0.1069,0.1149,0.1186,0.1177,0.111,0.1052,0.0839,0.0475,0.0293,0.0072,-0.0039,-0.0346,-0.0306,-0.0427,-0.0638,-0.0636,-0.0512,0,0,0,0,0,0,0.0709,0.0779,0.081,0.0906,0.0978,0.1093,0.1155,0.1178,0.1125,0.1082,0.0885,0.0786,0.0422,0.0604,0.0066,-0.0007,-0.0112,-0.0483,-0.0488,-0.0639,-0.0637,-0.0635,-0.0508,0,0,0,0,0]}]]